Weather History for Monett, MO

Change the Weather History Date:

Wednesday, July 17, 2013

  Actual Average (KJLN) Record (KJLN)
Temperature  
Mean Temperature 80 °F 80 °F  
Max Temperature 91 °F 91 °F 109 °F (1954)
Min Temperature 68 °F 70 °F 53 °F (1967)
Degree Days  
Heating Degree Days 0 0  
Month to date heating degree days 0  
Since 1 June heating degree days 5  
Since 1 July heating degree days 0  
Cooling Degree Days 14 15  
Month to date cooling degree days 251  
Year to date cooling degree days 749  
Since 1 June cooling degree days 569  
Growing Degree Days 30 (Base 50)    
Moisture  
Dew Point 67 °F    
Average Humidity 67    
Maximum Humidity 100    
Minimum Humidity 40    
Precipitation  
Precipitation 0.00 in 0.12 in 0.98 in (1989)
Month to date precipitation 2.30  
Year to date precipitation 26.11  
Sea Level Pressure  
Sea Level Pressure 30.29 in    
Wind  
Wind Speed 5 mph (SE)    
Max Wind Speed 10 mph    
Max Gust Speed -    
Visibility 10 miles    
Events      
T = Trace of Precipitation, MM = Missing Value Source: NWS Daily Summary

Daily Weather History Graph

Daily Weather History Graph

Search for Another Location

Airport:

Trip Planner

Search our weather history database for the weather conditions in past years. The results will help you decide how hot, cold, wet, or windy it might be!

Date:

Astronomy

Jul. 17, 2013 Rise Set
Actual Time 6:10 AM CDT 8:34 PM CDT
Civil Twilight 5:40 AM CDT 9:03 PM CDT
Nautical Twilight 5:03 AM CDT 9:40 PM CDT
Astronomical Twilight 4:23 AM CDT 10:20 PM CDT
Moon 3:25 PM CDT (7/17) 1:14 AM CDT (7/17)
Length of Visible Light 15h 23m
Length of Day
14h 23m
Waxing Gibbous, 67% of the Moon is Illuminated
Jul 17
Waxing Gibbous
Jul 22
Full
Jul 29
Last Quarter
Aug 6
New
Aug 14
First Quarter

Hourly Weather History & Observations

Time (CDT) Temp. Heat Index Dew Point Humidity Pressure Visibility Wind Dir Wind Speed Gust Speed Precip Events Conditions
12:15 AM 71.6 °F - 68.0 °F 88% 30.30 in 10.0 mi East 5.8 mph - N/A   Clear
12:35 AM 71.6 °F - 68.0 °F 88% 30.30 in 10.0 mi East 4.6 mph - N/A   Clear
12:55 AM 71.6 °F - 68.0 °F 88% 30.31 in 10.0 mi ESE 5.8 mph - N/A   Clear
1:15 AM 71.6 °F - 68.0 °F 88% 30.30 in 10.0 mi ESE 5.8 mph - N/A   Clear
1:35 AM 71.6 °F - 68.0 °F 88% 30.31 in 10.0 mi ESE 5.8 mph - N/A   Clear
1:55 AM 71.6 °F - 68.0 °F 88% 30.30 in 10.0 mi ESE 5.8 mph - N/A   Clear
2:15 AM 71.6 °F - 68.0 °F 88% 30.30 in 10.0 mi SE 5.8 mph - N/A   Clear
2:35 AM 69.8 °F - 68.0 °F 94% 30.30 in 10.0 mi SE 4.6 mph - N/A   Clear
2:55 AM 69.8 °F - 68.0 °F 94% 30.30 in 10.0 mi SE 4.6 mph - N/A   Clear
3:15 AM 69.8 °F - 68.0 °F 94% 30.30 in 10.0 mi ESE 6.9 mph - N/A   Clear
3:35 AM 69.8 °F - 68.0 °F 94% 30.30 in 10.0 mi ESE 5.8 mph - N/A   Clear
3:55 AM 69.8 °F - 68.0 °F 94% 30.30 in 10.0 mi East 4.6 mph - N/A   Clear
4:15 AM 69.8 °F - 68.0 °F 94% 30.30 in 10.0 mi ESE 5.8 mph - N/A   Clear
4:35 AM 69.8 °F - 68.0 °F 94% 30.30 in 10.0 mi ESE 5.8 mph - N/A   Clear
4:55 AM 69.8 °F - 68.0 °F 94% 30.31 in 10.0 mi ESE 4.6 mph - N/A   Clear
5:15 AM 69.8 °F - 68.0 °F 94% 30.31 in 10.0 mi ESE 4.6 mph - N/A   Clear
5:35 AM 68.0 °F - 68.0 °F 100% 30.31 in 10.0 mi ESE 4.6 mph - N/A   Clear
5:55 AM 68.0 °F - 68.0 °F 100% 30.32 in 10.0 mi ESE 5.8 mph - N/A   Clear
6:15 AM 68.0 °F - 68.0 °F 100% 30.32 in 10.0 mi ESE 5.8 mph - N/A   Clear
6:35 AM 69.8 °F - 68.0 °F 94% 30.32 in 10.0 mi ESE 5.8 mph - N/A   Clear
6:55 AM 69.8 °F - 68.0 °F 94% 30.33 in 10.0 mi ESE 5.8 mph - N/A   Clear
7:15 AM 69.8 °F - 68.0 °F 94% 30.33 in 10.0 mi ESE 5.8 mph - N/A   Clear
7:35 AM 71.6 °F - 69.8 °F 94% 30.34 in 10.0 mi ESE 3.5 mph - N/A   Clear
7:55 AM 73.4 °F - 69.8 °F 88% 30.34 in 10.0 mi ESE 3.5 mph - N/A   Clear
8:15 AM 75.2 °F - 71.6 °F 89% 30.35 in 10.0 mi ESE 3.5 mph - N/A   Clear
8:35 AM 77.0 °F - 71.6 °F 83% 30.35 in 10.0 mi SSE 4.6 mph - N/A   Clear
8:55 AM 78.8 °F - 71.6 °F 78% 30.35 in 10.0 mi SE 4.6 mph - N/A   Clear
9:15 AM 80.6 °F 83.9 °F 69.8 °F 70% 30.35 in 10.0 mi SSE 5.8 mph - N/A   Clear
9:35 AM 80.6 °F 83.2 °F 68.0 °F 65% 30.35 in 10.0 mi South 4.6 mph - N/A   Clear
9:55 AM 82.4 °F 85.4 °F 68.0 °F 62% 30.35 in 10.0 mi SSE 6.9 mph - N/A   Clear
10:15 AM 82.4 °F 85.4 °F 68.0 °F 62% 30.34 in 10.0 mi South 6.9 mph - N/A   Scattered Clouds
10:35 AM 82.4 °F 85.4 °F 68.0 °F 62% 30.35 in 10.0 mi SSE 4.6 mph - N/A   Scattered Clouds
10:55 AM 82.4 °F 85.4 °F 68.0 °F 62% 30.34 in 10.0 mi South 5.8 mph - N/A   Scattered Clouds
11:15 AM 84.2 °F 86.6 °F 66.2 °F 55% 30.34 in 10.0 mi SSE 4.6 mph - N/A   Scattered Clouds
11:35 AM 84.2 °F 86.6 °F 66.2 °F 55% 30.34 in 10.0 mi SSW 5.8 mph - N/A   Scattered Clouds
11:55 AM 82.4 °F 84.6 °F 66.2 °F 58% 30.34 in 10.0 mi Calm Calm - N/A   Mostly Cloudy
12:15 PM 86.0 °F 89.4 °F 68.0 °F 55% 30.34 in 10.0 mi SE 8.1 mph - N/A   Mostly Cloudy
12:35 PM 87.8 °F 90.4 °F 66.2 °F 49% 30.33 in 10.0 mi SSE 4.6 mph - N/A   Scattered Clouds
12:55 PM 86.0 °F 88.2 °F 66.2 °F 51% 30.33 in 10.0 mi ESE 6.9 mph - N/A   Scattered Clouds
1:15 PM 87.8 °F 90.4 °F 66.2 °F 49% 30.32 in 10.0 mi SE 8.1 mph - N/A   Mostly Cloudy
1:35 PM 86.0 °F 87.3 °F 64.4 °F 48% 30.32 in 10.0 mi East 3.5 mph - N/A   Scattered Clouds
1:55 PM 87.8 °F 89.4 °F 64.4 °F 46% 30.31 in 10.0 mi East 3.5 mph - N/A   Mostly Cloudy
2:15 PM 87.8 °F 89.4 °F 64.4 °F 46% 30.31 in 10.0 mi SE 3.5 mph - N/A   Scattered Clouds
2:35 PM 89.6 °F 91.1 °F 64.4 °F 43% 30.30 in 10.0 mi ESE 6.9 mph - N/A   Scattered Clouds
2:55 PM 89.6 °F 91.1 °F 64.4 °F 43% 30.29 in 10.0 mi ESE 5.8 mph - N/A   Scattered Clouds
3:15 PM 87.8 °F 89.4 °F 64.4 °F 46% 30.28 in 10.0 mi ENE 3.5 mph - N/A   Scattered Clouds
3:35 PM 89.6 °F 91.1 °F 64.4 °F 43% 30.27 in 10.0 mi SE 6.9 mph - N/A   Scattered Clouds
3:55 PM 91.4 °F 93.2 °F 64.4 °F 41% 30.27 in 10.0 mi East 10.4 mph - N/A   Scattered Clouds
4:15 PM 89.6 °F 91.1 °F 64.4 °F 43% 30.26 in 10.0 mi SE 5.8 mph - N/A   Scattered Clouds
4:35 PM 89.6 °F 91.1 °F 64.4 °F 43% 30.25 in 10.0 mi SSE 6.9 mph - N/A   Scattered Clouds
4:55 PM 91.4 °F 93.2 °F 64.4 °F 41% 30.25 in 10.0 mi SSE 5.8 mph - N/A   Clear
5:15 PM 91.4 °F 93.2 °F 64.4 °F 41% 30.24 in 10.0 mi SSE 4.6 mph - N/A   Clear
5:35 PM 87.8 °F 89.4 °F 64.4 °F 46% 30.24 in 10.0 mi South 5.8 mph - N/A   Clear
5:55 PM 89.6 °F 91.1 °F 64.4 °F 43% 30.23 in 10.0 mi South 4.6 mph - N/A   Scattered Clouds
6:15 PM 89.6 °F 91.1 °F 64.4 °F 43% 30.22 in 10.0 mi SSE 3.5 mph - N/A   Clear
6:35 PM 89.6 °F 90.1 °F 62.6 °F 40% 30.22 in 10.0 mi Calm Calm - N/A   Clear
6:55 PM 89.6 °F 90.1 °F 62.6 °F 40% 30.22 in 10.0 mi Calm Calm - N/A   Clear
7:15 PM 89.6 °F 90.1 °F 62.6 °F 40% 30.22 in 10.0 mi Calm Calm - N/A   Scattered Clouds
7:35 PM 87.8 °F 90.4 °F 66.2 °F 49% 30.22 in 10.0 mi WSW 3.5 mph - N/A   Scattered Clouds
7:55 PM 87.8 °F 89.4 °F 64.4 °F 46% 30.22 in 10.0 mi Calm Calm - N/A   Clear
8:15 PM 86.0 °F 88.2 °F 66.2 °F 51% 30.22 in 10.0 mi WNW 3.5 mph - N/A   Scattered Clouds
8:35 PM 82.4 °F 85.4 °F 68.0 °F 62% 30.22 in 10.0 mi Calm Calm - N/A   Mostly Cloudy
8:55 PM 82.4 °F 84.6 °F 66.2 °F 58% 30.22 in 10.0 mi East 3.5 mph - N/A   Scattered Clouds
9:15 PM 82.4 °F 83.9 °F 64.4 °F 54% 30.23 in 10.0 mi Calm Calm - N/A   Clear
9:35 PM 80.6 °F 82.3 °F 64.4 °F 58% 30.23 in 10.0 mi Calm Calm - N/A   Clear
9:55 PM 80.6 °F 82.7 °F 66.2 °F 61% 30.25 in 10.0 mi ESE 4.6 mph - N/A   Clear
10:15 PM 82.4 °F 83.9 °F 64.4 °F 54% 30.25 in 10.0 mi East 3.5 mph - N/A   Clear
10:35 PM 80.6 °F 82.3 °F 64.4 °F 58% 30.25 in 10.0 mi Calm Calm - N/A   Clear
10:55 PM 80.6 °F 82.3 °F 64.4 °F 58% 30.25 in 10.0 mi East 3.5 mph - N/A   Clear
11:15 PM 80.6 °F 82.3 °F 64.4 °F 58% 30.25 in 10.0 mi East 3.5 mph - N/A   Clear
11:35 PM 78.8 °F - 64.4 °F 61% 30.25 in 10.0 mi East 4.6 mph - N/A   Clear
11:55 PM 78.8 °F - 66.2 °F 65% 30.25 in 10.0 mi East 3.5 mph - N/A   Clear